Sydney, Australia

9:40 AM AEST on August 18, 2017 (GMT +1000)
Kingsford Smith International

Weather History for YSSY - August, 2013

Change the Weather History Date:

Sunday, August 4, 2013

  Actual Average Record
Temperature  
Mean Temperature 58 °F -  
Max Temperature 66 °F 66 °F 77 °F (2011)
Min Temperature 51 °F 47 °F 42 °F (1999)
Degree Days  
Heating Degree Days 6    
Growing Degree Days 8 (Base 50)    
Moisture  
Dew Point 33 °F    
Average Humidity 36    
Maximum Humidity 55    
Minimum Humidity 15    
Precipitation  
Precipitation 0.00 in 0.11 in - ()
Sea Level Pressure  
Sea Level Pressure 29.92 in    
Wind  
Wind Speed 11 mph ()    
Max Wind Speed 21 mph    
Max Gust Speed 39 mph    
Visibility 13.9 miles    
Events      
Averages and records for this station are not official NWS values.
T = Trace of Precipitation, MM = Missing Value Source: Averaged Metar Reports

Daily Weather History Graph

Daily Weather History Graph

Search for Another Location

Airport or City:

Trip Planner

Search our weather history database for the weather conditions in past years. The results will help you decide how hot, cold, wet, or windy it might be!

Date:

Astronomy

Aug. 04, 2013 Rise Set
Actual Time 6:45 AM AEST 5:17 PM AEST
Civil Twilight 6:19 AM AEST 5:43 PM AEST
Nautical Twilight 5:49 AM AEST 6:13 PM AEST
Astronomical Twilight 5:19 AM AEST 6:43 PM AEST
Moon 4:28 AM AEST (8/4) 3:01 PM AEST (8/4)
Length of Visible Light 11h 24m
Length of Day
10h 32m
Waning Crescent, 7% of the Moon is Illuminated
Aug 4
Waning Crescent
Aug 7
New
Aug 14
First Quarter
Aug 21
Full
Aug 28
Last Quarter

Hourly Weather History & Observations

Time (AEST) Temp. Dew Point Humidity Pressure Visibility Wind Dir Wind Speed Gust Speed Precip Events Conditions
12:00 AM 55 °F 32 °F 29% 29.94 in 25 mi NW 9.2 mph - -   Partly Cloudy
12:00 AM 55.4 °F 32.0 °F 41% 29.92 in - NW 9.2 mph - N/A   Clear
12:30 AM 55.4 °F 32.0 °F 41% 29.92 in - NNW 9.2 mph - N/A   Clear
1:00 AM 54 °F 33 °F 32% 29.92 in - North 9.2 mph - -  
1:00 AM 53.6 °F 32.0 °F 44% 29.92 in - North 9.2 mph - N/A   Clear
1:30 AM 53.6 °F 33.8 °F 47% 29.89 in - North 10.4 mph - N/A   Clear
2:00 AM 53.6 °F 32.0 °F 44% 29.89 in - North 10.4 mph - N/A   Clear
2:30 AM 53.6 °F 33.8 °F 47% 29.89 in - North 9.2 mph - N/A   Clear
3:00 AM 52 °F 34 °F 39% 29.89 in 25 mi North 9.2 mph - -   Partly Cloudy
3:00 AM 51.8 °F 33.8 °F 50% 29.89 in - North 9.2 mph - N/A   Clear
3:30 AM 53.6 °F 33.8 °F 47% 29.86 in - North 9.2 mph - N/A   Clear
4:00 AM 53 °F 34 °F 36% 29.88 in - NNW 11.5 mph - -  
4:00 AM 53.6 °F 33.8 °F 47% 29.86 in - NNW 11.5 mph - N/A   Clear
4:30 AM 55.4 °F 33.8 °F 44% 29.86 in - NNE 9.2 mph - N/A   Clear
5:00 AM 53.6 °F 33.8 °F 47% 29.86 in - NNW 8.1 mph - N/A   Clear
5:30 AM 53.6 °F 33.8 °F 47% 29.86 in - North 5.8 mph - N/A   Clear
6:00 AM 55 °F 35 °F 34% 29.88 in 19 mi North 6.9 mph - -   Partly Cloudy
6:00 AM 55.4 °F 35.6 °F 47% 29.86 in - North 6.9 mph - N/A   Clear
6:30 AM 55.4 °F 35.6 °F 47% 29.89 in - North 6.9 mph - N/A   Clear
7:00 AM 55 °F 36 °F 37% 29.90 in - North 5.8 mph - -  
7:00 AM 55.4 °F 35.6 °F 47% 29.89 in - North 5.8 mph - N/A   Clear
7:30 AM 55.4 °F 37.4 °F 51% 29.89 in - North 10.4 mph - N/A   Clear
8:00 AM 55.4 °F 37.4 °F 51% 29.89 in 6.2 mi North 10.4 mph - N/A   Scattered Clouds
8:30 AM 59.0 °F 37.4 °F 45% 29.92 in 6.2 mi North 10.4 mph - N/A   Scattered Clouds
9:00 AM 59 °F 37 °F 33% 29.94 in 19 mi NW 9.2 mph - -   Partly Cloudy
9:00 AM 59.0 °F 37.4 °F 45% 29.92 in 6.2 mi NW 9.2 mph - N/A   Mostly Cloudy
10:00 AM 63 °F 38 °F 28% 29.95 in - West 6.9 mph - -  
10:00 AM 62.6 °F 37.4 °F 39% 29.95 in 6.2 mi West 6.9 mph - N/A   Partly Cloudy
10:30 AM 60.8 °F 44.6 °F 55% 29.95 in - SSW 5.8 mph - N/A   Clear
11:00 AM 62.6 °F 41.0 °F 45% 29.92 in - WSW 11.5 mph - N/A   Clear
11:30 AM 64.4 °F 37.4 °F 37% 29.92 in - WNW 15.0 mph - N/A   Clear
12:00 PM 66 °F 35 °F 20% 29.91 in 19 mi WNW 19.6 mph - -   Partly Cloudy
12:00 PM 66.2 °F 35.6 °F 32% 29.89 in - WNW 19.6 mph - N/A   Clear
12:30 PM 66.2 °F 35.6 °F 32% 29.89 in - West 19.6 mph - N/A   Clear
1:00 PM 66 °F 30 °F 15% 29.90 in - West 17.3 mph - -  
1:00 PM 66.2 °F 30.2 °F 26% 29.89 in - West 17.3 mph - N/A   Clear
1:26 PM 66.2 °F 26.6 °F 23% 29.86 in - West 17.3 mph 28.8 mph N/A   Clear
1:30 PM 66.2 °F 28.4 °F 24% 29.86 in - West 18.4 mph - N/A   Clear
1:54 PM 64.4 °F 24.8 °F 22% 29.89 in - West 19.6 mph 31.1 mph N/A   Clear
2:00 PM 64.4 °F 26.6 °F 24% 29.89 in - West 20.7 mph 32.2 mph N/A   Clear
2:36 PM 64.4 °F 30.2 °F 28% 29.89 in - West 17.3 mph 28.8 mph N/A   Clear
3:00 PM 64 °F 30 °F 17% 29.90 in 19 mi West 19.6 mph - -   Partly Cloudy
3:00 PM 64.4 °F 30.2 °F 28% 29.89 in - West 19.6 mph - N/A   Clear
3:10 PM 64.4 °F 28.4 °F 26% 29.89 in - West 18.4 mph 39.1 mph N/A   Clear
3:30 PM 66.2 °F 30.2 °F 26% 29.89 in - WSW 17.3 mph - N/A   Clear
4:00 PM 63 °F 29 °F 16% 29.91 in - West 20.7 mph - -  
4:00 PM 62.6 °F 28.4 °F 27% 29.89 in - West 20.7 mph - N/A   Clear
4:27 PM 62.6 °F 28.4 °F 27% 29.89 in - West 17.3 mph 28.8 mph N/A   Clear
4:30 PM 62.6 °F 30.2 °F 30% 29.92 in - West 16.1 mph 28.8 mph N/A   Clear
5:00 PM 60.8 °F 28.4 °F 29% 29.92 in - West 17.3 mph - N/A   Clear
5:30 PM 59.0 °F 30.2 °F 34% 29.95 in - WSW 18.4 mph - N/A   Clear
6:00 PM 58 °F 30 °F 23% 29.96 in 19 mi West 13.8 mph - -   Partly Cloudy
6:00 PM 59.0 °F 30.2 °F 34% 29.95 in - West 13.8 mph - N/A   Clear
6:30 PM 59.0 °F 30.2 °F 34% 29.95 in - WNW 12.7 mph - N/A   Clear
7:00 PM 58 °F 31 °F 23% 29.99 in - WNW 12.7 mph - -  
7:00 PM 59.0 °F 30.2 °F 34% 29.98 in - WNW 12.7 mph - N/A   Clear
7:30 PM 57.2 °F 30.2 °F 36% 29.98 in - West 12.7 mph - N/A   Clear
8:00 PM 57.2 °F 32.0 °F 38% 29.98 in - WNW 12.7 mph - N/A   Clear
8:30 PM 57.2 °F 32.0 °F 38% 29.98 in - NW 10.4 mph - N/A   Clear
9:00 PM 56 °F 31 °F 27% 30.00 in 19 mi WNW 17.3 mph - -   Partly Cloudy
9:00 PM 57.2 °F 32.0 °F 38% 29.98 in - WNW 17.3 mph - N/A   Clear
9:30 PM 55.4 °F 33.8 °F 44% 30.01 in - NW 9.2 mph - N/A   Clear
10:00 PM 56 °F 31 °F 27% 30.02 in - NW 10.4 mph - -  
10:00 PM 55.4 °F 32.0 °F 41% 30.01 in - NW 10.4 mph - N/A   Clear
10:30 PM 55.4 °F 32.0 °F 41% 30.01 in - NW 9.2 mph - N/A   Clear
11:00 PM 55.4 °F 32.0 °F 41% 30.04 in - NNW 10.4 mph - N/A   Clear
11:30 PM 53.6 °F 32.0 °F 44% 30.04 in - NW 12.7 mph - N/A   Clear